Flag for Tanzania Weather past 2 weeks in Zanzibar City, Tanzania

Now
72 °F

Passing clouds.


Feels Like: 67 °F
Forecast: 76 / 83 °F
Wind: No wind

Location: Mombasa Airport

Current Time: Sep 1, 2015 at 7:33:37 AM

Latest Report: Sep 1, 2015 at 6:00 AM


Visibility: N/A

Pressure: 30.04 "Hg

Humidity: 94%

Dew point: 70 °F

Location of Zanzibar CityLocation

Historic Weather in Zanzibar City — Graph

°F

Zanzibar City temperature yesterday

Maximum temperature yesterday: 84 °F (at 12:00 PM)
Minimum temperature yesterday: 72 °F (at 5:00 AM)
Average temperature yesterday: 78 °F

Past Weeks' High & Low Weather Summary

 TemperatureHumidityPressure
High84 °F (Aug 17, 12:00 PM)100% (Aug 18, 12:00 AM)30.12 "Hg (Aug 18, 12:00 AM)
Low70 °F (Aug 18, 3:00 AM)20% (Aug 22, 4:00 PM)29.92 "Hg (Aug 18, 4:00 PM)
Average77 °F80%30.03 "Hg
* Reported Aug 17 6:00 AM — Sep 1 6:00 AM, Zanzibar City, Weather by CustomWeather, © 2015

Note: Actual official high and low records may vary slightly from our data, if they occured in-between our weather recording intervals... More about our weather records

Advertising

Zanzibar City weather history for previous 24 hours

 ConditionsComfort  
Time TempWeatherWind HumidityBarometerVisibility
6:00 AM
Tue, Sep 1
72 °FPassing clouds.No wind94%30.04 "HgN/A
5:00 AM73 °FPassing clouds.6 mph89%30.01 "HgN/A
4:00 AM73 °FPassing clouds.5 mph89%30.01 "HgN/A
3:00 AM75 °FPassing clouds.7 mph89%30.01 "HgN/A
2:00 AM75 °FPassing clouds.6 mph83%30.01 "HgN/A
12:00 AM75 °FPassing clouds.6 mph83%30.04 "HgN/A
11:00 PM
Mon, Aug 31
75 °FPassing clouds.6 mph83%30.07 "HgN/A
10:00 PM75 °FPassing clouds.6 mph83%30.07 "HgN/A
9:00 PM75 °FPassing clouds.6 mph83%30.04 "HgN/A
8:00 PM75 °FPassing clouds.7 mph83%30.04 "HgN/A
7:00 PM77 °FPassing clouds.6 mph79%30.01 "HgN/A
6:00 PM79 °FPassing clouds.9 mph70%30.01 "HgN/A
5:00 PM81 °FPassing clouds.8 mph62%30.01 "HgN/A
4:00 PM82 °FPassing clouds.12 mph62%30.01 "HgN/A
3:00 PM82 °FPassing clouds.12 mph66%30.04 "HgN/A
2:00 PM82 °FPartly sunny.12 mph62%30.07 "HgN/A
1:00 PM82 °FScattered clouds.10 mph58%30.07 "HgN/A
12:00 PM84 °FPartly sunny.9 mph58%30.09 "HgN/A
11:00 AM82 °FScattered clouds.8 mph62%30.09 "HgN/A
10:00 AM81 °FScattered clouds.9 mph70%30.09 "HgN/A
9:00 AM79 °FScattered clouds.7 mph79%30.09 "HgN/A
8:00 AM73 °FPassing clouds.6 mph94%30.09 "HgN/A
7:00 AM72 °FPassing clouds.6 mph100%30.07 "HgN/A
Weather by CustomWeather, © 2015

See weather overviewHow to use our weather pages